Wind_Speed
33 33 33 33 33 33 32 32 32 32 31 30 29 27 26 25 24 23 22 21 19 17 17 16 15 14 13 12 12 10 9 9 8 8 7 6 7 8 8 9 11 13 16 19 23 26 29 31 32 34 35 37 38 39 40 39 39 38 38 38 37 35 35 37 36 35 35 36 36 35 33 31 29 30 31 32 33 32 31 30 29 30 29 30 31 31 32 33
36 36 35 35 35 35 35 35 35 34 34 33 32 30 28 27 26 25 25 24 22 21 19 19 18 17 16 16 15 14 12 11 10 10 9 8 7 7 8 8 9 10 11 13 16 19 22 25 27 29 31 33 35 37 38 39 38 38 38 38 37 36 36 36 34 33 32 30 29 29 28 28 27 27 26 27 26 25 24 24 23 25 25 25 26 27 29 30
39 39 38 38 38 38 38 38 37 37 36 36 34 32 31 29 28 28 27 27 25 24 22 21 21 21 20 19 18 17 16 14 13 11 11 10 9 8 8 8 9 9 10 10 11 13 15 18 20 22 25 27 30 32 34 35 36 36 37 37 35 35 34 32 31 30 26 22 23 26 26 25 24 22 21 22 22 22 22 22 22 23 24 24 25 26 28 30
42 41 41 41 41 41 41 40 40 39 39 38 37 35 33 32 31 30 30 29 28 27 26 24 24 24 23 22 21 20 19 18 16 14 13 13 12 11 10 9 9 8 9 9 10 10 11 13 14 16 18 20 23 25 27 29 30 31 32 32 31 31 31 29 28 28 24 21 21 22 22 20 20 19 18 20 20 20 20 20 21 20 22 25 26 27 28 29
44 44 44 44 44 44 44 43 42 42 41 40 39 38 37 35 34 33 32 31 30 29 29 28 27 26 26 25 24 23 23 22 20 17 17 16 14 13 13 12 11 10 10 10 9 9 10 10 11 12 13 15 16 18 20 22 23 24 25 26 27 27 26 26 25 26 23 20 19 19 18 18 19 18 18 20 20 19 18 19 21 21 23 25 24 25 27 27
47 47 47 47 47 47 46 46 45 44 43 43 42 41 39 38 37 36 35 34 33 32 31 31 30 28 28 28 27 26 26 25 24 22 20 19 18 17 16 15 13 12 12 11 11 11 11 10 11 11 12 12 13 14 15 16 17 19 20 22 23 24 22 22 22 22 20 17 17 19 18 18 19 20 20 21 20 19 19 18 18 20 21 21 21 23 25 25
50 50 50 50 50 49 48 48 47 46 46 45 44 43 42 41 40 39 38 37 36 35 34 33 33 31 31 30 30 29 29 28 27 26 24 23 22 20 18 17 16 15 15 14 14 13 12 12 13 13 13 13 12 13 13 14 15 16 17 19 21 24 22 19 17 16 17 17 19 20 19 19 19 20 20 19 18 19 20 17 17 17 17 19 21 22 23 24
52 52 52 52 52 51 50 50 49 48 47 47 46 45 44 43 42 41 40 39 38 37 36 35 35 34 33 33 32 31 31 31 30 29 28 27 26 23 21 20 20 19 18 16 16 15 15 16 16 16 15 14 14 14 15 15 15 15 16 17 20 23 23 20 17 17 18 20 20 20 20 19 19 19 19 18 18 18 17 17 17 15 15 17 20 20 21 21
54 54 54 54 53 53 52 51 50 50 49 49 48 47 46 45 45 43 43 41 40 40 38 38 37 37 36 35 35 34 34 34 31 32 32 31 30 27 25 25 24 23 21 20 19 18 18 18 17 16 15 16 17 18 18 17 16 16 17 18 19 21 23 22 21 21 22 22 21 21 21 20 20 19 19 18 18 17 15 16 16 14 16 16 16 17 18 18
56 55 55 55 55 54 53 53 52 51 51 50 50 49 48 47 47 45 45 44 42 41 40 40 39 39 38 37 37 36 36 36 34 34 35 34 33 31 30 29 28 27 25 23 22 21 21 20 18 17 17 19 21 21 21 19 18 18 18 19 20 21 22 22 23 23 22 22 21 22 21 20 20 19 18 18 18 16 15 14 15 16 17 14 13 13 12 14
57 57 56 56 56 55 55 54 53 53 53 52 52 51 50 49 48 47 47 45 44 43 41 41 40 40 39 40 40 38 38 38 36 35 36 37 36 34 33 33 32 31 29 27 25 25 24 23 21 21 22 24 23 23 22 20 19 20 20 21 21 21 22 23 23 23 22 22 22 22 22 21 20 19 19 18 18 17 16 15 14 15 15 14 15 13 11 13
58 58 58 57 57 57 56 56 55 55 55 55 54 54 53 52 51 49 48 47 46 44 42 42 42 41 41 42 42 39 41 41 38 37 38 39 38 37 37 36 35 34 33 31 30 28 27 26 24 25 26 26 25 24 23 22 22 22 23 23 22 22 23 23 23 23 22 22 22 23 23 22 21 20 19 19 18 17 17 16 15 15 14 13 15 13 13 13
59 59 59 59 59 59 58 58 58 57 57 57 57 56 55 54 52 51 49 48 47 45 44 43 43 42 42 44 42 40 44 43 40 40 40 40 40 39 39 39 37 36 36 35 33 31 30 29 28 29 30 29 28 27 26 26 25 25 25 24 23 24 24 24 24 24 24 23 24 24 24 23 22 21 20 19 19 17 17 16 15 15 12 11 13 14 15 13
61 61 61 61 61 62 61 61 61 60 60 59 59 58 57 56 54 53 51 50 48 47 46 44 44 43 44 46 43 42 46 45 43 42 41 41 41 41 41 41 40 39 39 38 37 35 33 32 31 32 32 33 32 30 30 28 27 27 26 26 26 26 26 25 26 26 26 25 25 25 25 24 22 22 21 20 18 16 16 14 13 13 11 11 12 12 13 12
63 63 63 63 63 64 64 63 63 63 62 61 60 60 58 57 56 55 53 52 51 50 48 47 46 45 46 47 44 44 48 47 46 44 42 43 43 43 43 43 42 42 41 40 39 38 37 35 34 34 35 36 34 32 33 30 29 30 28 28 29 29 27 27 28 28 28 27 27 27 27 25 24 23 23 21 19 16 15 13 12 12 11 12 11 10 11 11
65 65 65 65 65 65 65 65 65 64 64 63 62 61 61 59 58 57 56 55 54 53 51 50 50 48 49 49 47 47 48 49 48 45 45 46 46 46 45 44 44 44 43 42 41 41 39 38 37 37 37 37 35 36 36 33 32 32 31 31 32 31 30 29 31 30 30 29 28 29 28 26 25 25 24 22 20 16 14 13 12 13 11 10 11 13 13 10
68 68 68 68 67 68 68 68 67 67 67 66 65 64 64 63 61 60 59 59 58 57 55 54 53 51 52 52 51 49 49 51 50 48 48 48 47 47 46 47 46 46 45 44 43 43 42 41 40 40 39 38 39 38 38 37 36 36 36 35 34 33 32 32 33 31 32 32 30 30 29 27 26 26 25 23 21 17 14 13 14 13 11 10 12 14 14 11
71 71 71 71 71 71 71 71 71 71 70 69 69 68 68 67 65 64 63 62 62 61 59 58 56 56 56 55 54 52 51 53 53 51 52 50 49 49 49 49 48 48 47 46 46 45 45 44 43 42 40 40 40 39 41 42 41 39 39 37 35 34 33 33 34 32 33 33 31 30 29 28 27 25 25 23 21 18 15 13 13 12 10 11 13 12 12 12
74 74 74 74 74 74 74 74 74 74 73 73 72 71 71 71 70 67 66 66 65 64 63 60 59 61 59 59 59 56 54 55 55 54 54 53 51 51 51 51 50 50 49 49 49 48 47 46 45 44 43 43 43 43 46 46 42 40 40 38 36 35 34 35 35 33 33 33 32 31 30 29 27 26 24 23 22 20 17 14 12 13 12 12 13 10 10 11
78 77 77 77 77 76 77 76 76 76 76 76 75 75 74 74 73 70 68 70 69 67 67 63 63 65 63 62 63 59 58 58 58 57 57 55 54 53 54 53 52 52 52 52 52 51 49 47 46 47 47 47 47 47 49 47 42 41 41 40 38 37 36 36 36 34 34 34 34 33 32 30 27 26 24 23 22 22 19 15 12 14 13 11 13 12 10 11
81 81 81 81 81 80 80 80 79 79 78 78 78 78 76 76 76 74 71 72 72 70 69 67 66 67 66 66 65 64 62 61 60 59 59 58 57 56 56 55 54 54 55 55 54 52 50 49 50 51 50 50 49 49 49 48 44 43 43 42 41 39 38 38 37 36 35 36 36 35 33 31 28 27 26 24 23 23 21 17 13 14 14 12 13 13 11 11
82 83 83 84 84 84 84 84 84 83 83 82 82 82 80 79 79 78 75 73 75 74 72 70 68 68 71 70 68 67 65 64 63 62 61 60 58 58 58 58 57 58 58 56 54 53 51 52 55 54 53 52 51 50 50 49 46 45 44 44 43 41 40 40 40 39 37 38 39 36 34 34 33 30 27 26 25 24 22 20 16 14 15 14 13 13 12 12
83 83 84 85 85 85 85 86 87 86 86 86 85 85 85 84 82 82 79 75 77 78 75 73 72 71 74 74 70 69 68 68 66 64 63 61 61 62 61 60 60 60 59 56 55 54 54 57 58 55 54 52 51 51 50 50 48 46 46 46 45 44 44 43 42 42 41 41 41 40 37 37 37 33 30 28 27 25 23 22 19 15 15 15 15 15 13 12
85 85 86 87 87 86 86 87 88 87 87 87 87 87 87 87 86 85 83 79 78 81 80 78 76 75 76 78 75 72 71 71 68 66 64 64 65 65 63 62 62 61 59 58 57 56 58 60 58 55 54 52 52 51 50 50 48 47 48 47 47 48 47 46 45 45 45 43 42 42 39 37 37 36 33 32 28 25 25 24 21 17 16 16 16 16 15 13
88 88 88 89 90 90 88 89 89 89 88 88 87 88 87 87 87 86 85 82 78 81 85 82 79 79 80 83 79 74 74 74 71 69 67 67 68 67 65 64 64 62 61 61 60 59 60 61 57 55 55 53 53 52 52 51 50 50 49 49 51 51 50 48 48 47 47 45 42 43 41 38 39 39 37 35 31 28 27 26 24 20 18 17 17 17 17 16
91 91 91 91 92 92 91 91 91 91 91 90 89 89 89 88 88 86 85 83 79 80 86 85 82 82 84 84 81 78 78 76 75 73 70 70 72 71 69 66 65 65 65 66 64 61 62 61 59 58 57 55 54 54 54 53 53 52 51 53 54 53 51 50 49 48 48 46 45 44 41 40 42 41 39 38 35 33 31 28 27 23 20 19 19 18 18 19
94 95 95 95 95 95 95 95 94 93 92 92 91 90 90 90 89 88 86 85 83 83 86 87 86 84 85 85 83 81 79 77 79 78 73 72 74 74 72 69 68 68 69 69 65 62 63 64 62 60 59 58 56 56 56 56 55 54 55 56 56 54 52 51 50 49 49 50 49 46 43 42 43 41 42 42 40 38 35 32 30 26 23 21 20 19 19 20
93 94 95 96 96 96 97 97 97 97 96 94 93 92 91 91 90 90 89 87 88 88 88 89 90 88 87 86 84 81 79 80 82 81 78 76 77 77 74 72 71 71 72 70 66 65 67 67 65 63 62 60 59 59 60 58 57 57 59 58 56 54 53 53 52 51 52 52 50 48 46 45 45 44 45 45 43 41 39 37 33 28 26 23 22 21 20 20
91 92 93 94 94 95 95 96 97 98 98 96 96 95 93 92 91 91 91 89 91 93 91 91 93 92 90 87 85 83 82 81 81 83 83 79 78 79 76 75 74 73 73 70 67 69 69 68 66 65 63 62 61 62 61 59 59 59 59 56 55 55 54 54 53 52 53 51 49 50 50 48 48 47 47 47 46 44 42 41 35 30 28 25 24 24 22 21
92 93 94 94 94 94 93 94 94 95 96 95 95 95 94 93 93 94 93 91 95 98 94 93 94 93 92 89 87 86 85 83 82 84 84 80 78 79 78 78 77 75 74 71 69 70 70 69 67 64 62 62 62 62 60 58 58 58 56 54 55 55 54 53 52 53 53 48 47 50 51 50 49 48 49 49 48 47 46 43 37 33 31 28 26 26 24 22
94 94 95 95 95 95 94 94 94 93 93 93 93 92 91 92 92 93 94 94 101 104 100 97 94 90 91 90 88 87 87 87 85 85 85 80 78 79 78 78 77 75 74 71 68 70 71 68 64 62 62 62 62 60 58 57 57 56 54 53 54 53 53 53 53 52 48 46 48 51 54 53 48 50 54 52 50 50 49 45 40 36 33 31 28 27 25 22
95 96 96 96 96 96 96 96 95 95 94 93 92 91 90 90 89 90 92 95 103 107 104 99 92 88 90 90 88 87 87 87 87 86 85 82 80 79 78 76 75 74 72 69 69 71 71 67 64 64 64 63 61 59 58 56 56 55 53 53 53 52 53 52 51 49 47 49 52 54 57 52 47 54 59 55 53 54 51 47 43 39 35 33 31 29 27 24
97 97 97 97 96 96 96 96 95 95 94 93 92 92 91 90 90 91 92 97 104 104 100 96 91 89 91 91 90 90 89 88 88 87 85 84 83 81 79 78 77 75 73 73 74 73 72 70 67 65 63 63 60 58 56 55 56 56 54 53 52 52 51 50 49 48 48 51 52 54 54 49 48 56 58 54 54 55 53 49 46 41 37 35 34 32 29 25
98 99 99 98 98 97 96 96 94 93 92 91 90 90 90 90 92 94 97 103 104 96 92 91 88 88 90 92 95 95 93 91 91 90 88 85 84 83 82 81 79 77 77 79 78 75 74 72 66 63 63 62 60 57 57 57 57 56 54 53 52 50 50 49 48 49 49 51 51 51 49 46 49 54 53 51 51 52 53 50 47 43 39 37 36 33 30 27
98 98 99 98 98 98 98 97 95 92 91 89 87 86 88 89 92 96 102 108 103 92 87 87 85 86 88 91 96 97 97 96 96 96 93 89 86 84 83 82 81 80 81 80 77 75 74 70 66 67 67 65 63 61 61 60 58 56 55 52 49 49 50 48 47 48 49 49 49 47 45 47 50 50 49 49 47 48 51 51 48 45 41 38 36 35 33 30
94 95 96 96 96 96 97 97 95 93 91 88 86 85 87 88 92 98 105 104 97 88 86 85 85 86 86 90 95 99 102 103 103 102 98 93 89 87 86 85 83 83 82 80 77 76 74 70 70 72 70 67 66 65 64 62 60 58 55 50 49 52 51 46 44 46 46 46 45 44 45 48 50 48 47 48 47 45 48 51 50 46 42 39 37 37 35 31
89 89 90 91 91 92 93 93 93 93 91 89 87 86 87 89 92 98 101 95 88 86 84 85 88 89 89 91 95 100 105 108 108 106 101 96 92 90 88 87 86 85 83 81 80 79 75 73 74 74 70 67 68 68 67 64 62 59 54 51 53 54 48 42 42 43 43 44 44 43 46 49 49 47 47 49 48 46 46 50 50 46 43 40 38 38 36 32
84 83 84 85 86 86 87 88 89 89 90 89 88 88 88 90 92 97 96 90 87 88 85 85 89 90 91 93 95 99 104 106 107 104 100 97 95 94 92 91 90 88 85 84 83 81 78 77 77 75 72 70 70 71 68 63 60 56 53 54 54 49 43 39 39 41 41 43 43 44 47 48 46 47 49 50 49 46 45 48 48 45 43 40 38 38 37 35
77 76 76 77 78 79 80 82 83 84 85 86 86 87 88 90 93 95 95 91 90 91 90 90 91 89 90 94 96 99 101 101 102 102 101 101 101 101 99 97 94 91 90 89 87 83 80 79 79 75 73 73 73 72 65 58 57 54 52 53 50 44 42 40 39 39 41 42 43 45 47 47 47 48 49 49 47 44 45 48 48 46 44 42 39 39 40 38
71 70 69 70 70 71 72 73 75 76 77 78 79 81 83 87 91 94 95 93 91 92 94 95 95 92 92 93 96 99 100 100 100 99 100 102 104 103 102 100 98 96 93 88 85 83 81 80 79 77 77 76 71 65 60 56 56 54 52 51 48 44 44 42 38 37 39 40 43 46 46 46 46 45 44 44 44 42 43 47 49 48 47 45 44 43 44 42
64 65 64 63 62 63 65 66 67 68 68 69 70 72 74 78 83 88 92 93 93 94 95 97 99 98 96 95 97 100 100 99 100 99 98 101 104 103 101 101 100 96 91 87 84 82 82 80 79 78 77 72 63 60 60 60 58 56 55 53 51 49 48 45 39 37 38 40 42 45 46 44 40 39 41 43 43 43 43 45 48 50 50 49 48 47 46 44
59 59 59 59 57 57 58 60 62 62 62 62 62 63 65 68 72 76 82 88 93 95 97 99 102 102 100 97 97 99 98 98 100 100 100 104 106 103 100 99 97 93 91 90 87 85 84 83 80 79 76 69 63 64 65 64 62 61 59 56 54 53 51 47 42 40 40 41 43 46 48 43 35 35 42 44 43 41 42 43 46 50 53 52 51 50 48 46
55 55 55 55 54 53 53 55 57 57 57 56 56 56 57 60 63 65 71 79 86 93 98 101 105 106 104 100 98 97 97 97 99 101 103 106 106 100 95 94 94 92 91 92 91 91 93 89 84 81 77 71 69 70 69 68 66 62 59 57 54 53 51 48 46 45 43 44 45 47 49 44 35 34 40 42 40 39 40 43 46 50 54 54 54 53 50 49
51 52 51 50 50 50 50 51 53 54 53 52 52 51 52 54 56 58 63 69 76 86 94 100 106 108 106 104 101 100 98 98 102 105 106 108 106 98 92 90 91 90 90 91 92 94 94 90 83 81 79 76 74 73 71 69 64 60 58 57 53 52 52 51 49 47 45 47 48 49 50 45 38 38 38 37 38 39 41 43 46 50 55 56 56 55 53 51
48 48 48 47 46 46 46 47 49 50 49 49 49 47 47 50 52 53 56 61 67 77 86 96 104 109 109 106 105 104 102 101 105 108 108 109 105 96 91 90 90 89 88 89 91 92 92 88 84 83 82 79 74 71 70 67 63 60 58 57 55 54 54 53 51 48 47 49 49 49 51 45 40 40 37 33 34 36 39 43 46 49 54 57 56 54 53 51
48 47 46 44 43 42 42 42 44 45 45 45 46 45 44 45 48 50 52 56 61 69 78 88 98 106 110 109 108 107 105 105 109 110 108 108 102 94 91 91 90 89 87 88 91 93 91 88 85 83 82 80 76 73 72 72 69 65 60 59 58 56 55 55 53 50 49 50 49 50 51 47 42 40 36 33 34 35 37 41 44 48 52 53 53 53 55 54
48 47 44 41 40 40 39 38 39 40 40 40 42 41 41 42 44 47 49 52 56 63 72 81 90 100 107 110 110 109 108 109 111 111 109 106 99 92 91 92 91 89 87 89 92 92 90 88 86 82 81 82 80 77 77 75 71 67 63 61 61 60 58 56 55 53 52 51 51 52 52 49 44 41 38 38 39 38 37 39 43 46 49 50 52 56 59 59
46 45 42 38 36 37 38 35 35 37 36 36 37 37 37 39 40 43 46 49 53 59 67 75 83 93 101 106 109 111 112 112 112 111 111 107 98 90 90 92 91 88 88 91 92 92 92 89 86 84 84 84 82 79 77 75 72 68 64 62 62 62 60 57 57 57 54 52 53 54 53 50 46 43 44 44 43 41 39 38 40 43 46 49 53 58 61 61
45 43 41 36 32 34 35 33 33 34 33 32 34 33 33 35 38 39 42 46 50 55 63 70 77 86 95 101 106 111 115 115 113 112 113 108 98 91 90 90 90 89 91 92 92 91 90 87 86 86 87 87 85 80 76 74 72 68 66 64 64 63 61 60 60 60 56 55 56 56 54 52 48 46 48 48 44 42 40 36 37 40 44 47 52 58 62 61
45 42 39 35 32 32 32 30 30 31 30 28 30 30 30 32 34 36 39 43 48 52 59 66 73 81 89 95 102 109 115 115 112 112 113 109 100 93 91 90 90 91 93 94 92 89 88 90 91 91 90 87 84 80 76 74 72 71 70 67 63 62 63 63 63 61 58 57 59 58 56 53 51 49 51 50 46 42 38 34 35 38 41 43 48 55 60 61
47 42 38 35 33 32 31 29 28 28 27 25 27 28 27 28 31 33 36 40 45 50 55 62 69 77 83 90 97 105 111 113 111 112 113 109 101 96 93 91 91 92 93 94 92 89 90 93 93 92 89 85 82 81 78 76 76 75 70 64 61 61 63 64 64 62 60 60 62 61 57 55 54 51 52 53 48 42 37 36 37 38 38 40 45 51 56 60
49 43 38 36 33 32 30 28 28 27 24 23 24 24 24 24 27 31 33 37 42 46 52 58 66 73 79 85 92 99 105 109 110 111 111 108 102 98 96 94 93 93 93 94 92 91 92 92 91 90 88 85 84 83 81 79 78 74 67 64 64 65 66 67 66 64 62 61 62 62 59 58 56 54 55 56 50 43 40 40 41 38 35 38 42 46 51 56
Wind_Direction
250 251 252 253 255 256 257 257 257 257 257 256 256 256 259 262 264 265 264 261 258 255 254 253 249 246 244 242 241 235 218 202 193 188 185 182 174 168 169 175 186 199 208 214 218 221 223 225 227 228 229 230 231 232 234 235 236 237 236 238 243 245 250 254 255 258 262 267 271 272 275 279 282 282 283 284 284 285 284 285 285 284 282 281 280 280 280 279
251 252 253 253 254 255 255 256 256 257 257 257 256 255 256 258 261 262 262 260 258 255 253 252 250 246 244 243 243 242 236 225 211 200 192 194 195 184 179 175 175 182 190 200 209 215 220 222 224 226 228 229 231 232 233 235 236 237 237 238 241 242 246 252 254 258 262 266 268 269 276 282 285 287 288 287 286 288 287 286 287 286 285 284 283 280 279 280
251 252 253 254 254 255 255 256 256 257 258 258 258 256 255 256 258 259 259 259 257 256 253 251 250 248 245 243 243 243 242 237 228 217 204 200 204 205 197 190 182 177 180 184 191 200 207 213 217 221 224 227 229 231 233 235 236 236 237 238 240 240 243 247 252 256 258 259 265 271 278 283 286 288 289 285 287 291 290 290 290 288 289 288 286 283 280 279
252 253 253 254 255 255 255 256 256 257 258 259 260 259 258 257 257 258 257 256 256 255 254 251 249 249 247 243 242 242 243 241 235 229 223 211 205 211 211 207 200 192 190 187 185 187 192 196 200 207 213 218 223 226 229 232 233 234 235 236 237 236 238 243 247 249 250 255 265 272 278 284 287 288 286 282 287 293 294 298 298 295 295 293 289 284 280 281
252 253 254 254 255 255 256 256 257 258 259 260 260 261 260 260 259 258 257 255 254 254 254 252 249 248 248 245 243 242 241 242 240 234 233 226 214 215 214 212 211 208 205 203 199 194 193 194 192 193 196 202 210 216 221 224 227 228 228 229 230 229 232 236 240 242 248 257 264 270 277 282 284 283 282 283 289 293 293 298 299 300 301 295 288 284 286 289
252 253 254 254 255 255 256 257 258 258 259 260 261 261 261 261 260 259 257 256 254 253 252 252 250 248 248 247 245 243 241 241 240 237 235 235 229 222 219 215 212 215 215 213 213 210 204 202 203 201 199 198 200 203 207 210 213 214 215 218 219 219 220 225 233 241 248 257 266 271 275 277 278 279 281 286 291 293 293 297 294 297 300 294 288 289 294 299
253 254 255 255 256 256 257 258 258 259 259 260 261 261 261 261 261 260 258 257 255 253 251 251 250 248 247 247 246 245 243 240 240 239 237 238 236 231 228 224 216 217 220 218 219 220 216 213 212 212 212 209 208 206 205 205 203 203 205 207 210 210 210 217 228 239 251 259 266 269 271 272 275 278 282 286 291 292 295 299 296 296 296 293 292 291 298 305
255 255 256 256 257 257 258 258 259 259 259 260 260 260 261 261 260 260 259 257 256 254 251 250 249 248 247 247 246 245 245 242 240 241 239 238 238 237 235 232 226 220 220 222 222 223 223 223 219 215 217 216 216 217 216 214 210 208 207 208 211 212 217 228 236 244 256 262 264 266 268 271 273 277 282 286 291 294 296 301 298 292 289 291 292 290 297 305
256 257 257 258 258 258 258 259 259 259 260 260 259 259 259 260 260 259 259 257 256 254 252 250 249 247 246 246 246 245 245 243 241 241 240 238 238 238 237 237 233 227 223 223 226 226 226 228 227 223 221 220 220 222 222 221 219 218 217 217 218 220 226 236 242 248 256 261 263 265 267 271 275 278 284 288 293 298 300 306 303 294 294 294 289 291 299 304
258 258 259 259 259 259 259 259 259 259 259 259 259 259 259 259 259 259 259 257 255 254 252 250 249 247 245 245 245 244 245 244 241 242 241 240 238 238 237 237 237 234 229 226 228 231 230 230 231 230 225 222 223 224 225 226 225 226 226 226 226 228 232 237 243 248 253 259 263 266 268 272 277 281 287 291 296 299 301 305 302 299 301 299 296 300 307 308
259 259 259 260 260 260 260 260 259 259 259 259 259 260 260 259 259 259 258 257 255 253 251 249 248 247 245 244 243 243 244 243 241 241 242 241 239 238 238 237 238 238 235 232 231 232 234 232 232 233 231 228 229 229 229 231 230 231 232 231 232 234 238 240 244 248 253 258 263 266 270 274 278 283 288 292 295 299 302 301 299 304 305 304 307 307 312 322
260 260 260 260 260 260 260 259 260 260 260 260 260 260 260 260 259 258 257 256 254 252 250 248 247 246 245 245 243 242 243 242 240 240 241 242 241 239 239 239 238 238 239 237 235 234 235 236 235 236 236 235 235 234 234 234 233 233 235 236 237 239 242 244 247 251 255 259 264 268 272 275 279 284 288 291 294 298 304 302 301 310 308 301 306 303 304 324
260 260 260 260 260 260 260 260 260 260 260 261 261 261 260 260 259 257 256 254 253 251 249 247 246 244 244 244 243 242 242 241 239 239 240 241 241 240 240 240 239 238 239 239 238 237 236 237 239 239 239 239 238 237 236 236 236 237 240 242 242 242 244 248 251 255 258 260 265 268 272 275 279 283 285 289 293 298 305 306 306 315 315 303 301 298 299 317
261 261 261 261 261 261 261 260 260 260 260 260 260 260 260 259 258 256 255 253 251 250 248 246 245 243 243 243 242 242 243 242 239 238 239 241 241 241 241 241 240 240 239 240 240 240 239 238 240 242 242 241 240 240 240 239 240 242 243 245 245 246 247 251 254 256 258 260 263 267 270 273 276 279 283 286 291 297 303 305 305 311 313 300 291 288 297 313
261 261 261 261 261 261 261 261 260 260 260 260 259 259 258 258 257 256 254 253 251 250 248 246 244 243 243 243 241 241 244 243 241 239 238 240 241 241 241 241 241 241 240 240 240 241 241 240 241 243 244 244 244 245 245 242 243 245 245 247 248 249 250 251 254 254 257 258 261 264 266 270 273 274 277 281 284 290 299 301 299 305 308 299 289 283 298 313
262 262 262 261 261 261 261 261 261 260 259 259 259 258 257 256 256 255 254 253 252 250 249 247 245 243 244 243 241 240 243 244 243 241 239 239 239 240 241 242 242 242 241 241 241 242 242 243 243 244 246 247 247 248 247 246 246 247 247 247 248 249 249 250 252 254 257 258 259 261 264 267 270 272 275 278 280 286 296 296 288 300 307 297 293 296 302 312
263 263 262 262 262 262 262 261 261 261 260 259 258 258 257 256 255 255 254 254 253 251 250 249 247 245 245 245 242 240 243 245 244 242 241 239 239 240 241 242 242 243 243 242 243 243 243 244 244 245 246 248 248 249 250 249 247 247 246 246 247 249 249 251 253 254 257 258 258 261 263 265 267 271 275 276 280 284 288 289 286 295 303 289 290 301 304 302
264 263 263 262 262 262 262 262 261 261 260 260 259 259 258 257 256 255 255 254 254 253 251 250 250 248 247 246 245 241 241 244 244 243 243 241 239 241 241 241 242 243 244 244 244 244 244 244 245 246 248 249 249 249 249 248 246 246 247 248 249 251 252 252 254 255 257 260 260 261 262 263 264 267 272 275 278 280 279 283 286 284 286 282 282 294 301 295
264 263 263 262 262 261 261 261 261 261 261 260 259 259 259 258 257 256 256 255 254 254 253 252 252 251 249 248 247 243 242 244 245 244 244 243 241 241 242 242 242 243 244 244 244 244 244 245 246 247 247 246 246 246 247 247 247 249 250 251 252 254 253 253 255 255 256 258 258 259 258 259 262 264 268 271 274 275 274 278 284 276 273 270 269 281 292 285
264 264 263 262 261 261 261 260 260 260 260 260 259 258 258 258 257 256 256 256 255 254 254 253 253 253 251 250 249 246 244 244 244 245 244 244 243 243 243 243 242 243 243 244 244 244 245 246 247 247 246 246 246 247 250 251 251 252 253 254 253 253 253 253 254 253 254 256 255 256 257 257 260 262 263 265 268 271 271 271 275 275 273 263 264 274 273 268
264 263 263 262 261 261 260 260 259 259 259 259 259 258 257 257 257 256 255 256 255 254 253 253 252 254 253 251 250 248 246 245 245 245 245 244 244 244 244 243 243 243 243 243 243 244 245 246 246 245 246 247 248 249 251 253 253 253 254 254 254 253 252 251 251 251 251 254 255 255 257 258 256 257 259 259 261 265 267 268 268 272 272 261 259 264 259 260
264 263 262 261 261 260 260 259 259 259 258 258 258 258 257 256 256 256 255 255 256 254 253 253 252 252 253 251 250 250 249 247 246 246 246 245 245 245 245 244 244 244 243 243 244 245 246 246 245 245 246 247 249 250 252 253 253 253 253 253 254 252 250 249 249 250 248 250 253 253 254 256 254 252 255 257 258 262 265 266 264 265 267 261 254 250 248 252
264 263 262 261 260 259 259 258 258 257 257 257 257 257 257 256 256 256 255 254 256 255 253 253 251 250 252 252 249 250 250 248 247 246 246 246 246 245 245 245 244 244 245 244 244 244 244 244 244 245 247 248 249 250 251 252 252 252 252 252 252 251 249 249 249 249 247 246 250 252 251 253 254 253 253 255 256 260 263 263 260 258 261 260 255 250 246 248
264 264 263 262 261 260 259 258 258 256 256 256 256 255 255 255 255 255 254 253 254 256 254 252 251 250 251 251 249 248 249 249 247 247 247 247 246 245 244 244 245 245 245 245 244 244 244 245 246 246 247 248 248 249 250 251 251 250 250 250 250 250 250 249 249 249 249 247 249 252 252 252 255 255 253 253 254 256 258 258 257 254 254 258 256 253 251 251
265 264 263 263 262 261 259 258 258 257 256 255 255 254 254 254 254 253 253 252 251 254 254 252 250 250 249 250 250 248 248 248 248 246 245 246 246 245 244 244 245 245 245 245 244 243 244 246 246 246 247 246 246 247 247 248 248 248 248 249 249 250 251 251 251 251 251 251 250 251 251 251 253 255 255 254 252 251 252 253 253 250 249 253 253 251 250 247
266 265 264 263 263 262 261 260 258 257 256 255 254 254 254 253 253 252 252 251 249 250 253 252 249 249 249 249 249 248 247 247 248 246 244 245 246 246 245 244 245 245 245 245 244 244 246 247 246 246 245 245 245 246 247 247 247 248 248 248 249 250 251 252 252 252 253 254 252 251 251 250 251 254 256 254 251 248 247 248 249 247 245 247 248 249 248 243
267 266 265 264 263 262 262 261 260 258 257 256 255 254 254 253 253 252 251 251 249 247 250 251 250 248 248 248 247 247 247 247 247 246 244 244 245 246 245 244 244 245 245 245 245 245 246 246 245 244 245 245 245 245 246 246 247 248 248 249 250 252 253 253 253 253 254 254 253 252 250 249 250 251 252 251 249 247 246 244 244 243 241 242 243 245 247 245
267 266 265 264 263 263 262 261 261 260 258 257 256 254 254 253 253 253 252 250 250 248 247 249 250 248 247 247 247 246 245 245 246 246 243 242 243 244 244 244 243 243 244 244 244 243 243 244 244 244 244 244 244 244 245 246 247 248 249 250 252 253 254 254 253 253 253 254 255 254 250 247 247 245 246 248 248 247 246 243 241 240 239 239 241 241 240 243
268 267 266 265 264 263 262 262 261 261 260 258 257 256 254 253 253 253 252 251 250 249 247 247 248 248 247 246 246 246 245 244 245 245 244 242 243 244 244 243 242 242 243 244 243 243 243 244 244 244 244 244 244 245 246 247 248 249 250 252 253 254 254 254 254 253 253 254 255 254 250 245 243 242 242 245 246 245 244 243 239 237 236 236 240 240 233 234
269 268 268 267 266 265 264 263 262 261 261 260 258 257 255 254 252 252 252 251 251 249 246 245 245 247 247 246 245 245 245 243 243 244 244 242 242 243 243 243 242 242 243 243 242 243 243 244 244 245 246 245 245 246 247 248 249 250 251 252 253 253 253 253 252 252 253 253 252 250 247 243 241 241 241 241 241 241 240 240 237 234 234 233 237 241 236 232
272 271 270 270 269 268 266 265 263 262 261 260 259 258 257 255 253 252 251 250 250 249 246 244 244 245 247 247 246 245 245 245 243 243 244 243 241 242 242 242 244 244 244 244 244 245 245 245 246 246 246 245 245 246 247 247 249 250 250 251 251 251 251 251 250 251 252 250 245 243 244 242 239 239 238 235 235 237 237 237 235 231 231 230 231 237 239 235
275 274 273 272 271 270 269 267 265 264 262 260 260 259 257 256 255 253 251 249 248 248 247 245 244 244 246 248 247 246 246 246 245 244 244 243 242 242 242 242 243 243 243 244 243 244 245 245 244 244 244 244 244 245 245 246 247 248 248 249 249 249 248 248 249 249 247 243 242 243 245 246 241 238 238 235 233 235 235 233 232 229 227 229 228 230 235 234
276 276 275 274 273 271 270 268 267 265 263 261 259 258 257 256 255 254 251 249 247 246 247 246 244 243 244 246 246 246 245 245 245 245 243 242 242 241 240 240 240 240 240 239 238 238 240 240 239 239 241 242 243 243 244 245 246 246 245 245 245 245 246 246 246 245 243 242 243 245 248 249 244 241 242 240 236 235 235 232 230 227 224 227 228 227 230 233
277 277 276 275 274 273 271 270 268 266 264 261 259 257 256 255 254 253 251 250 248 246 246 246 244 242 241 242 243 244 243 243 243 242 241 240 240 240 240 239 239 239 239 238 238 237 238 239 239 239 240 241 241 241 242 242 243 243 243 243 243 244 245 244 243 243 242 243 243 245 248 247 242 241 242 243 239 237 236 233 230 227 223 225 229 227 227 229
278 277 276 275 274 272 271 270 269 267 264 262 259 257 255 253 252 251 250 249 248 246 245 245 244 242 240 240 241 242 242 241 240 240 239 238 237 238 238 238 238 238 238 239 239 239 240 240 239 238 237 238 238 237 238 239 240 241 241 242 243 243 243 241 241 242 242 243 244 245 244 241 239 239 240 241 240 236 236 234 230 227 223 223 228 228 225 225
278 277 276 274 273 271 270 269 268 267 265 262 259 256 254 251 250 249 249 249 250 248 245 244 243 241 239 237 237 238 238 238 238 237 237 236 236 236 236 235 235 235 236 238 238 239 239 239 239 238 237 238 238 237 237 237 238 238 239 239 240 240 240 239 240 242 244 245 245 243 239 237 237 238 238 238 236 232 232 233 231 227 223 222 227 229 226 226
280 278 277 275 274 272 270 268 267 265 264 262 260 257 253 251 249 249 249 250 251 250 247 244 241 239 238 236 235 235 236 235 235 235 235 235 235 235 235 235 235 234 234 235 235 235 235 235 236 237 237 237 238 238 237 236 237 238 238 237 238 239 241 240 241 243 244 244 243 240 238 237 237 237 237 237 234 228 226 230 232 228 222 221 226 229 228 228
282 281 279 277 275 273 271 269 267 265 263 261 259 256 254 251 249 249 249 248 247 247 246 243 241 238 236 236 235 235 236 237 237 236 235 235 234 234 233 233 233 233 233 233 233 233 232 233 233 234 234 234 235 236 236 237 238 239 238 238 240 242 242 241 241 243 243 242 241 239 238 237 235 235 235 235 235 229 223 226 229 227 222 219 224 230 229 229
285 283 281 279 277 275 273 271 269 266 264 261 259 256 253 251 249 248 247 245 242 242 242 242 240 237 235 235 235 236 236 237 238 237 235 234 232 231 231 231 231 231 231 231 231 232 232 233 233 233 233 232 233 235 236 237 238 238 237 239 241 241 241 239 240 242 242 242 241 240 239 237 234 233 234 235 236 231 224 223 225 223 220 216 219 227 228 227
288 285 283 280 278 277 275 273 271 268 265 262 260 256 253 250 248 247 246 244 240 239 238 238 238 237 234 233 233 234 235 235 236 236 236 235 234 232 231 230 230 230 231 231 232 233 232 232 233 233 233 233 233 235 237 236 236 236 235 237 238 238 239 238 238 241 242 242 243 242 241 239 235 234 236 236 235 231 225 224 223 220 217 214 214 221 225 224
289 287 285 282 280 278 276 274 272 270 267 264 261 258 254 250 247 245 244 242 240 238 236 236 236 235 233 231 230 231 232 233 234 234 234 235 236 235 233 232 231 230 230 231 232 234 235 235 235 235 234 234 234 235 235 232 231 232 231 232 233 233 233 233 232 234 237 238 240 241 240 238 234 233 233 232 231 227 223 223 222 219 217 214 213 217 221 222
291 289 287 285 283 280 277 275 273 271 269 266 263 259 255 251 247 243 241 239 237 236 235 234 234 234 233 230 228 229 229 231 233 233 233 233 233 233 232 233 233 232 230 229 228 230 232 232 233 234 234 233 231 231 231 230 228 228 228 227 228 230 230 229 227 226 229 232 234 237 238 234 230 230 230 228 228 225 221 220 220 219 217 215 213 214 218 220
294 292 290 288 286 283 280 277 275 273 270 267 264 261 257 252 248 243 239 236 233 233 232 231 232 232 232 230 229 228 227 228 230 232 232 233 233 231 230 231 232 232 231 230 228 227 228 228 227 230 232 230 228 228 229 229 227 227 228 227 227 229 231 229 226 222 223 227 229 235 238 232 225 228 230 227 226 224 220 218 218 219 218 215 214 213 215 218
298 295 292 289 287 284 281 279 276 275 273 270 266 261 257 253 249 243 238 234 231 230 229 229 230 231 231 229 228 227 226 225 227 229 230 231 232 230 229 229 230 230 230 230 230 230 231 230 228 228 230 229 228 228 230 231 229 228 228 229 228 228 230 231 227 223 223 226 229 234 239 233 225 228 230 227 225 223 219 217 217 218 219 216 214 213 214 216
305 300 297 293 289 286 283 280 278 276 275 272 268 263 257 253 250 244 238 233 230 228 227 226 227 229 229 229 227 227 225 223 225 227 228 230 229 227 227 227 228 228 228 228 230 231 232 232 230 229 230 231 229 229 232 233 232 230 229 229 229 228 229 230 229 224 222 227 230 235 239 236 229 230 229 226 225 223 220 219 217 218 219 218 216 214 215 216
313 307 302 298 294 289 286 282 280 277 275 273 269 265 259 253 249 245 239 233 229 226 225 224 224 226 227 227 227 226 224 223 224 226 227 229 228 225 224 225 226 226 226 226 228 229 230 230 230 229 231 232 229 226 227 228 228 227 225 226 227 227 226 228 229 225 221 223 228 233 238 237 233 233 229 223 225 224 221 220 219 218 220 219 217 215 215 216
318 312 307 303 299 294 290 287 284 280 276 273 269 266 260 254 248 244 239 233 228 225 223 223 223 223 225 225 225 225 225 223 223 225 226 227 226 224 223 223 224 224 224 224 225 227 228 228 227 227 228 231 230 226 226 227 227 226 224 222 223 225 224 224 227 226 221 220 224 230 236 236 234 235 230 223 224 224 221 221 220 218 219 219 216 215 216 216
324 318 312 309 305 298 294 293 290 284 279 275 270 266 260 255 248 243 239 234 228 225 222 222 222 222 223 224 224 224 224 224 223 223 225 226 225 222 222 222 222 222 222 223 223 224 225 226 225 224 224 227 229 227 227 228 229 228 226 224 223 224 224 222 223 224 220 218 223 227 233 235 233 234 233 225 222 223 220 220 220 218 219 219 216 215 216 217
332 326 319 316 312 303 299 299 295 288 283 278 273 268 260 255 249 242 237 233 229 225 222 221 221 221 222 223 223 222 223 224 222 222 223 224 223 221 221 221 220 220 221 223 223 223 223 224 224 224 224 224 225 225 225 227 229 228 227 225 222 223 223 221 221 222 220 217 221 225 229 232 231 233 235 228 222 223 221 220 222 220 219 220 219 218 218 217
338 334 327 322 319 312 307 305 299 292 288 282 276 270 262 255 250 243 236 232 229 225 222 220 220 220 221 222 222 222 223 223 222 221 222 222 220 219 220 220 219 218 219 221 221 221 221 222 222 223 224 224 225 224 223 223 226 226 226 224 221 220 222 222 221 221 219 217 220 224 226 229 229 230 235 232 224 222 221 222 227 225 221 221 221 220 219 218
344 341 333 329 325 320 316 312 304 297 294 287 278 272 265 256 250 244 237 232 228 225 222 220 219 220 221 221 221 221 222 223 222 221 221 220 218 217 218 219 218 217 218 220 220 219 219 220 221 222 223 223 224 225 223 221 223 224 225 224 222 219 219 222 222 221 219 218 220 223 224 227 227 227 233 235 226 219 223 227 229 226 222 223 224 222 221 219
350 346 340 335 332 327 323 319 312 306 302 294 283 275 268 259 251 245 238 232 228 225 222 219 218 219 220 220 220 220 221 222 222 221 221 219 216 216 217 218 218 217 217 218 218 217 218 219 221 222 222 222 223 223 223 221 221 223 223 222 222 218 216 220 222 220 218 218 221 223 224 226 227 225 230 235 228 219 222 229 229 226 223 225 225 224 223 221
Height
10959 10959 10959 10959 10960 10960 10961 10961 10962 10962 10963 10964 10965 10965 10966 10967 10967 10968 10969 10969 10970 10971 10972 10972 10973 10973 10974 10974 10974 10974 10974 10973 10974 10974 10974 10974 10974 10975 10975 10976 10977 10977 10978 10979 10980 10981 10982 10983 10984 10986 10987 10989 10990 10991 10992 10994 10996 10998 10999 10999 11000 11002 11001 11001 11003 11003 11003 11003 11004 11004 11003 11003 11002 11003 11002 11001 11001 11001 11001 11000 10999 10998 10996 10994 10992 10991 10989 10987
10956 10956 10956 10956 10957 10957 10958 10958 10959 10960 10960 10961 10962 10963 10964 10965 10965 10966 10966 10967 10968 10969 10970 10970 10971 10972 10972 10973 10973 10973 10973 10973 10973 10973 10973 10974 10974 10974 10975 10975 10976 10976 10977 10977 10978 10979 10979 10980 10982 10983 10984 10985 10986 10988 10989 10991 10993 10995 10996 10996 10999 11000 10999 10999 11000 11000 11002 11002 11001 11001 11001 11000 11000 11001 11001 10999 10999 10999 10998 10998 10997 10995 10993 10992 10990 10989 10987 10985
10953 10953 10953 10953 10953 10954 10954 10955 10956 10956 10957 10958 10959 10960 10961 10963 10963 10963 10964 10965 10965 10967 10968 10968 10969 10969 10970 10971 10972 10972 10972 10972 10972 10973 10973 10973 10973 10973 10974 10975 10975 10976 10976 10977 10977 10977 10978 10978 10979 10980 10981 10982 10983 10985 10986 10988 10990 10992 10993 10994 10997 10997 10997 10997 10997 10998 10999 11000 10999 10998 10998 10998 10998 10999 11000 10998 10997 10998 10997 10996 10995 10993 10991 10989 10988 10986 10985 10983
10949 10950 10950 10950 10950 10951 10951 10952 10953 10953 10954 10954 10955 10957 10958 10960 10960 10961 10961 10962 10963 10964 10965 10966 10966 10967 10968 10969 10970 10970 10970 10970 10971 10972 10972 10972 10972 10972 10973 10973 10974 10975 10976 10976 10977 10977 10977 10977 10978 10978 10979 10980 10981 10982 10984 10986 10988 10989 10991 10992 10993 10994 10994 10995 10996 10996 10996 10997 10997 10995 10996 10996 10996 10998 10998 10997 10997 10997 10995 10994 10992 10991 10989 10987 10986 10984 10983 10982
10945 10946 10946 10946 10947 10947 10948 10948 10949 10950 10950 10951 10952 10953 10955 10956 10957 10958 10958 10959 10960 10961 10962 10963 10964 10964 10965 10966 10967 10968 10968 10969 10970 10970 10970 10971 10972 10972 10972 10972 10973 10974 10975 10975 10976 10976 10976 10977 10977 10977 10978 10978 10979 10980 10982 10983 10985 10987 10988 10989 10990 10991 10992 10993 10995 10995 10994 10994 10994 10993 10994 10995 10995 10996 10997 10995 10995 10995 10994 10993 10991 10989 10988 10986 10984 10982 10981 10980
10941 10942 10942 10942 10942 10943 10944 10944 10945 10946 10947 10948 10949 10950 10951 10952 10953 10954 10955 10956 10957 10958 10959 10959 10960 10961 10962 10963 10964 10965 10966 10967 10967 10968 10969 10969 10970 10970 10971 10971 10972 10973 10973 10974 10975 10975 10976 10976 10976 10977 10977 10977 10978 10979 10980 10982 10983 10984 10985 10986 10988 10989 10990 10992 10993 10992 10992 10992 10992 10992 10993 10994 10994 10994 10995 10994 10993 10993 10993 10993 10991 10989 10987 10985 10983 10981 10980 10978
10936 10937 10937 10938 10938 10939 10939 10940 10941 10942 10943 10944 10945 10946 10947 10948 10949 10950 10951 10952 10953 10955 10956 10956 10957 10958 10959 10960 10961 10962 10963 10964 10964 10965 10967 10967 10967 10969 10970 10970 10971 10971 10972 10973 10973 10974 10975 10975 10975 10976 10976 10977 10977 10978 10979 10980 10982 10983 10984 10985 10986 10987 10988 10990 10990 10989 10989 10990 10990 10991 10992 10993 10993 10993 10993 10992 10992 10992 10992 10991 10990 10987 10985 10984 10982 10979 10978 10976
10932 10932 10933 10933 10933 10934 10935 10936 10936 10937 10938 10939 10940 10941 10942 10944 10945 10946 10947 10948 10949 10950 10952 10953 10953 10954 10955 10956 10957 10958 10959 10960 10962 10963 10964 10965 10965 10967 10968 10968 10969 10970 10970 10971 10971 10972 10973 10973 10974 10975 10975 10976 10977 10977 10978 10979 10980 10981 10983 10984 10985 10986 10987 10987 10988 10988 10988 10989 10989 10990 10991 10992 10992 10992 10991 10991 10991 10991 10990 10990 10989 10986 10984 10983 10981 10978 10976 10975
10927 10927 10928 10928 10928 10929 10930 10931 10931 10932 10933 10934 10935 10936 10938 10939 10940 10941 10942 10944 10945 10946 10948 10949 10949 10950 10952 10952 10953 10955 10955 10956 10959 10959 10960 10961 10963 10964 10965 10965 10966 10967 10969 10969 10970 10971 10971 10972 10973 10974 10975 10975 10976 10976 10977 10978 10979 10980 10981 10983 10984 10985 10985 10986 10986 10987 10987 10988 10988 10988 10989 10990 10990 10990 10990 10990 10990 10989 10989 10988 10987 10985 10984 10982 10980 10977 10975 10974
10922 10922 10923 10923 10923 10924 10925 10925 10926 10927 10927 10928 10929 10930 10932 10933 10935 10936 10937 10939 10940 10942 10943 10944 10945 10946 10947 10948 10949 10951 10951 10953 10955 10955 10956 10958 10959 10961 10962 10962 10963 10964 10966 10967 10968 10968 10969 10970 10971 10972 10974 10974 10974 10975 10975 10976 10978 10979 10980 10981 10982 10983 10983 10984 10985 10985 10986 10986 10987 10987 10987 10988 10988 10988 10988 10988 10988 10988 10988 10987 10985 10984 10983 10981 10979 10977 10975 10974
10916 10917 10917 10917 10917 10918 10919 10920 10920 10921 10922 10923 10923 10925 10926 10928 10929 10931 10932 10933 10935 10937 10938 10940 10941 10941 10943 10943 10944 10947 10947 10948 10951 10952 10952 10953 10955 10957 10958 10959 10960 10961 10963 10964 10965 10966 10967 10968 10969 10970 10970 10971 10972 10973 10974 10976 10977 10977 10978 10979 10980 10981 10982 10982 10983 10983 10984 10984 10984 10985 10985 10986 10987 10987 10987 10987 10987 10987 10987 10986 10984 10983 10982 10980 10978 10976 10975 10974
10910 10911 10911 10911 10912 10912 10913 10914 10914 10915 10916 10916 10917 10919 10920 10921 10923 10925 10926 10927 10929 10931 10933 10935 10936 10937 10938 10937 10940 10943 10942 10943 10947 10948 10948 10949 10951 10953 10954 10955 10957 10958 10959 10961 10962 10964 10965 10965 10967 10967 10967 10968 10970 10971 10973 10974 10975 10975 10976 10977 10978 10979 10979 10980 10980 10981 10982 10982 10982 10983 10983 10984 10985 10985 10985 10986 10985 10986 10985 10984 10983 10982 10981 10980 10978 10976 10974 10973
10904 10904 10905 10905 10905 10905 10906 10907 10908 10909 10910 10910 10911 10912 10914 10915 10917 10918 10920 10921 10923 10925 10927 10930 10931 10932 10933 10932 10936 10938 10936 10938 10942 10943 10944 10945 10947 10948 10949 10951 10953 10954 10955 10957 10958 10960 10962 10963 10963 10963 10964 10966 10967 10969 10970 10971 10972 10973 10974 10975 10976 10977 10977 10978 10978 10979 10980 10980 10980 10981 10981 10982 10983 10984 10984 10984 10984 10984 10984 10983 10982 10981 10980 10980 10978 10976 10974 10973
10897 10898 10898 10899 10898 10898 10899 10900 10901 10902 10903 10904 10904 10905 10907 10909 10910 10912 10914 10915 10917 10919 10921 10924 10925 10927 10927 10926 10932 10932 10930 10934 10937 10938 10940 10941 10942 10944 10945 10946 10948 10950 10951 10953 10955 10956 10958 10960 10960 10960 10962 10962 10964 10966 10967 10969 10970 10971 10972 10973 10973 10974 10975 10976 10976 10977 10978 10978 10978 10979 10979 10980 10981 10982 10982 10983 10983 10984 10983 10982 10981 10980 10979 10979 10978 10976 10975 10973
10890 10891 10891 10891 10891 10891 10892 10893 10894 10894 10896 10897 10897 10898 10900 10902 10903 10905 10907 10908 10911 10913 10915 10917 10919 10922 10921 10921 10927 10926 10925 10928 10930 10934 10936 10936 10937 10938 10940 10942 10943 10945 10947 10949 10950 10952 10954 10956 10957 10957 10958 10959 10961 10963 10964 10966 10968 10968 10970 10970 10971 10972 10973 10974 10973 10974 10975 10976 10977 10976 10977 10979 10979 10980 10981 10981 10982 10982 10982 10981 10980 10979 10979 10978 10977 10976 10975 10973
10882 10883 10883 10884 10884 10883 10884 10885 10885 10886 10888 10889 10890 10891 10892 10894 10896 10898 10900 10902 10904 10906 10908 10911 10912 10915 10915 10916 10920 10921 10921 10922 10924 10928 10930 10930 10932 10933 10935 10937 10938 10940 10942 10944 10946 10948 10950 10951 10953 10953 10955 10957 10958 10959 10960 10963 10965 10965 10966 10967 10967 10968 10970 10971 10971 10972 10973 10973 10974 10974 10975 10977 10977 10978 10979 10980 10980 10981 10981 10980 10979 10978 10978 10977 10976 10975 10974 10973
10874 10875 10875 10876 10876 10875 10875 10876 10877 10878 10879 10881 10882 10883 10884 10886 10888 10891 10892 10894 10896 10898 10901 10903 10906 10909 10909 10909 10913 10916 10917 10916 10918 10922 10922 10925 10927 10928 10931 10931 10933 10935 10937 10939 10941 10943 10945 10946 10948 10949 10951 10953 10954 10955 10957 10959 10960 10961 10962 10963 10964 10965 10967 10968 10968 10970 10970 10970 10971 10972 10973 10975 10975 10976 10977 10978 10978 10979 10979 10979 10978 10978 10977 10975 10974 10973 10973 10972
10865 10866 10866 10866 10867 10867 10866 10867 10868 10868 10869 10871 10873 10874 10875 10876 10879 10883 10885 10886 10888 10890 10893 10896 10900 10901 10901 10903 10905 10909 10911 10910 10912 10914 10915 10919 10922 10923 10924 10926 10928 10930 10932 10934 10936 10938 10940 10942 10943 10946 10948 10949 10950 10952 10951 10951 10954 10957 10958 10960 10962 10963 10965 10965 10966 10967 10967 10968 10969 10970 10971 10972 10974 10975 10975 10975 10976 10976 10977 10977 10977 10976 10975 10974 10973 10972 10971 10971
10855 10856 10856 10856 10857 10858 10857 10857 10858 10859 10860 10861 10863 10865 10866 10867 10870 10875 10877 10877 10880 10882 10884 10890 10892 10891 10894 10896 10896 10902 10905 10904 10905 10907 10909 10912 10916 10918 10918 10920 10923 10924 10927 10928 10929 10932 10934 10937 10940 10942 10943 10942 10943 10944 10943 10945 10951 10954 10955 10957 10960 10961 10962 10962 10963 10965 10965 10965 10966 10967 10968 10969 10971 10973 10973 10973 10973 10973 10974 10975 10974 10973 10974 10973 10972 10971 10971 10971
10844 10845 10845 10845 10846 10847 10846 10847 10848 10849 10850 10850 10852 10855 10857 10857 10858 10866 10869 10867 10871 10874 10876 10883 10883 10881 10886 10888 10888 10895 10897 10897 10899 10900 10902 10905 10909 10911 10912 10914 10917 10919 10921 10921 10923 10927 10930 10934 10936 10934 10934 10935 10937 10939 10938 10942 10949 10951 10952 10954 10956 10958 10958 10959 10960 10962 10962 10962 10963 10963 10964 10967 10969 10970 10971 10971 10970 10971 10971 10973 10973 10971 10971 10972 10971 10970 10971 10971
10832 10832 10833 10833 10834 10836 10835 10836 10837 10838 10839 10840 10841 10842 10847 10848 10847 10854 10860 10858 10861 10865 10868 10873 10875 10874 10876 10879 10880 10884 10887 10890 10893 10894 10895 10899 10901 10904 10905 10907 10910 10912 10912 10914 10918 10922 10927 10929 10927 10925 10928 10931 10933 10934 10935 10939 10944 10946 10947 10949 10952 10954 10955 10955 10956 10958 10959 10958 10958 10960 10961 10963 10965 10966 10968 10969 10969 10968 10969 10970 10971 10971 10970 10970 10970 10970 10970 10970
10820 10819 10820 10820 10821 10823 10823 10823 10825 10826 10827 10829 10830 10830 10834 10838 10838 10842 10849 10852 10850 10853 10859 10862 10867 10867 10862 10867 10872 10873 10879 10882 10884 10887 10888 10891 10895 10897 10897 10899 10903 10903 10904 10910 10914 10918 10921 10919 10916 10920 10924 10927 10929 10931 10932 10934 10938 10941 10942 10944 10947 10949 10950 10950 10951 10953 10955 10955 10954 10957 10958 10958 10960 10963 10965 10966 10966 10966 10967 10968 10969 10970 10970 10969 10969 10968 10968 10969
10807 10807 10806 10806 10807 10810 10811 10810 10811 10813 10815 10816 10818 10820 10821 10825 10829 10831 10838 10845 10840 10839 10849 10851 10854 10857 10851 10856 10864 10864 10868 10872 10875 10880 10882 10885 10888 10887 10889 10892 10894 10895 10899 10906 10908 10910 10911 10907 10909 10917 10920 10923 10925 10926 10927 10929 10933 10936 10937 10939 10941 10942 10944 10945 10946 10948 10950 10951 10951 10953 10956 10955 10956 10959 10962 10963 10963 10964 10965 10965 10967 10969 10969 10969 10967 10967 10967 10968
10794 10794 10793 10792 10792 10796 10798 10797 10797 10800 10803 10804 10805 10807 10809 10812 10816 10820 10825 10835 10834 10827 10832 10839 10842 10847 10844 10841 10849 10857 10859 10860 10867 10873 10875 10877 10876 10877 10883 10884 10885 10889 10895 10898 10899 10902 10901 10899 10907 10914 10915 10918 10920 10921 10923 10924 10927 10930 10931 10933 10934 10934 10938 10940 10941 10942 10944 10947 10950 10950 10953 10954 10953 10955 10958 10959 10961 10962 10962 10962 10964 10966 10968 10967 10966 10966 10966 10967
10780 10780 10780 10780 10778 10780 10784 10784 10783 10786 10790 10791 10793 10794 10797 10800 10802 10809 10813 10820 10828 10818 10812 10825 10832 10833 10830 10827 10838 10850 10849 10850 10858 10863 10867 10867 10866 10869 10874 10876 10878 10884 10887 10888 10891 10894 10893 10896 10904 10908 10909 10912 10914 10915 10917 10918 10921 10923 10926 10927 10926 10928 10933 10935 10936 10937 10938 10943 10947 10947 10950 10952 10950 10951 10953 10955 10957 10959 10959 10959 10961 10964 10966 10966 10965 10965 10965 10966
10765 10765 10766 10766 10765 10765 10767 10769 10770 10772 10774 10777 10781 10782 10785 10788 10790 10797 10801 10806 10817 10810 10798 10808 10818 10818 10817 10819 10830 10835 10836 10845 10847 10850 10858 10858 10856 10859 10864 10870 10873 10875 10877 10877 10883 10889 10888 10891 10898 10900 10902 10905 10908 10910 10911 10912 10915 10918 10920 10919 10919 10923 10928 10930 10931 10933 10934 10938 10941 10943 10947 10948 10947 10948 10949 10951 10953 10955 10955 10957 10958 10961 10963 10964 10964 10964 10964 10964
10749 10749 10750 10751 10751 10751 10751 10753 10755 10757 10760 10762 10767 10770 10772 10776 10778 10783 10789 10794 10799 10797 10792 10793 10799 10805 10805 10807 10816 10822 10830 10837 10832 10837 10849 10849 10846 10849 10855 10863 10865 10866 10867 10868 10877 10885 10881 10882 10889 10892 10895 10898 10902 10904 10904 10906 10909 10912 10912 10912 10914 10919 10923 10925 10926 10928 10930 10931 10934 10939 10943 10944 10944 10946 10945 10945 10948 10950 10951 10953 10955 10957 10960 10961 10962 10962 10962 10962
10734 10733 10733 10733 10736 10737 10736 10738 10739 10740 10745 10747 10751 10757 10759 10763 10767 10770 10774 10780 10780 10781 10784 10781 10781 10790 10792 10796 10806 10813 10820 10821 10819 10826 10835 10836 10835 10839 10846 10852 10855 10855 10855 10861 10872 10874 10869 10873 10881 10884 10887 10892 10895 10895 10896 10900 10904 10904 10904 10907 10911 10914 10917 10919 10920 10923 10924 10925 10929 10933 10937 10939 10940 10940 10940 10941 10943 10946 10947 10948 10951 10954 10957 10958 10959 10960 10960 10960
10719 10718 10717 10716 10719 10720 10721 10723 10723 10723 10727 10732 10735 10740 10746 10749 10755 10756 10758 10766 10765 10761 10769 10769 10767 10773 10778 10787 10796 10800 10805 10810 10812 10813 10817 10827 10828 10830 10838 10841 10842 10844 10847 10857 10864 10861 10861 10868 10873 10877 10881 10886 10887 10887 10891 10896 10898 10897 10899 10904 10907 10908 10911 10912 10915 10917 10917 10922 10926 10924 10928 10932 10933 10933 10936 10938 10939 10941 10942 10943 10948 10951 10953 10956 10956 10956 10958 10959
10704 10704 10702 10702 10702 10703 10706 10707 10708 10710 10710 10715 10718 10723 10730 10734 10739 10741 10744 10754 10746 10736 10749 10755 10753 10760 10766 10775 10784 10787 10791 10798 10801 10799 10804 10818 10820 10819 10828 10829 10830 10837 10841 10849 10854 10853 10855 10860 10865 10872 10877 10879 10879 10882 10887 10891 10891 10891 10895 10900 10900 10902 10904 10906 10909 10909 10912 10921 10920 10914 10917 10923 10926 10929 10931 10933 10934 10934 10935 10938 10944 10947 10949 10953 10953 10952 10954 10956
10690 10689 10687 10687 10687 10686 10690 10690 10692 10695 10696 10699 10701 10706 10713 10715 10721 10726 10729 10736 10722 10711 10727 10736 10743 10758 10758 10762 10773 10777 10781 10784 10788 10790 10795 10807 10810 10811 10817 10820 10824 10831 10835 10843 10850 10848 10846 10853 10862 10867 10869 10870 10872 10877 10881 10884 10884 10886 10891 10893 10893 10896 10898 10900 10902 10904 10911 10915 10908 10904 10906 10914 10923 10923 10921 10925 10927 10927 10930 10935 10939 10943 10945 10949 10951 10951 10951 10952
10674 10672 10670 10671 10670 10670 10671 10671 10673 10676 10679 10683 10686 10691 10696 10697 10705 10708 10710 10713 10696 10689 10707 10722 10741 10756 10750 10752 10763 10767 10770 10772 10775 10782 10787 10794 10798 10802 10808 10814 10818 10822 10829 10838 10840 10837 10838 10847 10854 10856 10858 10861 10865 10871 10874 10877 10878 10880 10884 10885 10887 10889 10891 10894 10897 10901 10905 10902 10897 10898 10900 10910 10920 10913 10910 10919 10921 10921 10926 10931 10934 10939 10942 10945 10948 10949 10949 10950
10657 10655 10652 10652 10652 10652 10651 10651 10653 10656 10659 10664 10669 10674 10678 10682 10687 10687 10688 10682 10667 10676 10699 10714 10733 10744 10741 10745 10748 10749 10756 10760 10762 10768 10775 10781 10786 10791 10798 10802 10805 10811 10820 10821 10819 10823 10828 10833 10840 10846 10851 10854 10859 10865 10869 10871 10871 10872 10876 10878 10880 10883 10885 10889 10892 10894 10896 10893 10893 10895 10898 10909 10912 10904 10906 10915 10917 10918 10922 10926 10930 10935 10939 10942 10944 10946 10948 10949
10640 10636 10634 10633 10632 10632 10631 10631 10632 10635 10638 10643 10650 10655 10660 10666 10667 10666 10663 10649 10646 10674 10695 10702 10718 10727 10730 10734 10731 10732 10740 10744 10746 10750 10757 10767 10772 10778 10785 10791 10797 10804 10806 10803 10807 10816 10819 10824 10837 10844 10845 10848 10853 10859 10860 10861 10861 10864 10868 10870 10874 10878 10880 10883 10886 10887 10888 10887 10889 10893 10898 10904 10900 10897 10904 10911 10914 10917 10920 10923 10928 10931 10936 10938 10941 10944 10947 10948
10622 10617 10614 10613 10613 10611 10610 10610 10612 10614 10617 10622 10629 10636 10641 10645 10646 10643 10632 10619 10634 10670 10685 10690 10703 10710 10716 10721 10717 10718 10723 10725 10729 10732 10739 10750 10759 10767 10774 10780 10786 10790 10791 10794 10804 10811 10813 10823 10833 10832 10833 10838 10843 10848 10849 10850 10854 10858 10861 10866 10872 10873 10872 10877 10881 10882 10882 10884 10887 10891 10896 10894 10889 10893 10901 10906 10911 10915 10916 10919 10924 10928 10932 10936 10938 10940 10943 10946
10603 10599 10594 10592 10592 10591 10589 10590 10591 10593 10597 10601 10607 10615 10619 10621 10624 10615 10601 10606 10635 10662 10672 10680 10687 10690 10698 10702 10700 10700 10700 10701 10704 10710 10721 10735 10747 10754 10759 10764 10772 10775 10780 10788 10796 10800 10806 10816 10819 10817 10824 10832 10834 10837 10840 10844 10848 10851 10856 10864 10866 10863 10866 10874 10877 10877 10879 10881 10884 10887 10888 10883 10882 10891 10898 10900 10905 10910 10912 10915 10919 10925 10930 10933 10935 10936 10939 10943
10583 10580 10576 10572 10570 10569 10569 10569 10571 10573 10576 10579 10586 10593 10595 10598 10601 10591 10587 10611 10637 10646 10655 10664 10665 10670 10678 10679 10679 10677 10672 10674 10681 10692 10709 10724 10735 10742 10748 10754 10758 10762 10770 10777 10781 10787 10796 10803 10804 10808 10818 10824 10826 10827 10831 10837 10841 10846 10854 10858 10855 10856 10865 10872 10873 10874 10876 10876 10878 10880 10878 10876 10881 10889 10892 10894 10898 10904 10908 10910 10915 10922 10927 10931 10932 10932 10936 10939
10564 10562 10558 10554 10551 10549 10548 10548 10550 10552 10554 10558 10564 10569 10573 10577 10579 10575 10581 10607 10623 10623 10634 10642 10641 10649 10657 10659 10662 10660 10658 10665 10673 10686 10703 10713 10722 10728 10731 10736 10741 10750 10761 10765 10767 10775 10785 10789 10791 10799 10808 10813 10814 10815 10822 10834 10839 10845 10851 10849 10850 10857 10864 10868 10869 10870 10870 10869 10871 10872 10870 10873 10880 10884 10885 10888 10893 10899 10904 10905 10911 10918 10923 10927 10930 10929 10932 10935
10546 10544 10541 10537 10534 10531 10530 10529 10529 10531 10533 10537 10541 10546 10551 10555 10557 10559 10566 10585 10598 10602 10612 10618 10619 10629 10637 10642 10648 10648 10653 10661 10667 10678 10690 10694 10700 10705 10710 10720 10729 10737 10744 10748 10754 10766 10776 10779 10783 10793 10798 10800 10803 10808 10821 10834 10836 10841 10845 10844 10849 10856 10859 10862 10864 10863 10863 10864 10865 10864 10865 10870 10874 10877 10879 10885 10890 10896 10900 10902 10906 10912 10917 10922 10926 10926 10927 10930
10529 10526 10524 10521 10519 10516 10514 10512 10511 10511 10513 10516 10519 10524 10530 10534 10537 10541 10547 10561 10576 10583 10589 10594 10600 10608 10615 10624 10633 10634 10641 10651 10655 10665 10676 10679 10681 10689 10699 10709 10716 10722 10733 10744 10754 10761 10767 10771 10777 10784 10786 10788 10800 10813 10824 10830 10831 10834 10839 10841 10846 10850 10852 10855 10859 10859 10859 10860 10859 10859 10861 10864 10869 10875 10879 10883 10887 10892 10896 10898 10901 10906 10910 10914 10918 10919 10921 10925
10515 10510 10507 10506 10505 10502 10499 10497 10495 10494 10496 10498 10501 10504 10509 10513 10516 10522 10529 10541 10554 10562 10569 10575 10580 10585 10591 10603 10612 10615 10626 10638 10641 10650 10661 10661 10661 10673 10688 10695 10701 10716 10733 10743 10751 10756 10760 10767 10772 10774 10776 10788 10806 10815 10815 10817 10821 10825 10829 10833 10838 10841 10843 10848 10852 10853 10853 10853 10853 10853 10855 10859 10867 10873 10874 10877 10881 10885 10889 10893 10896 10901 10904 10907 10911 10914 10916 10920
10502 10498 10494 10491 10490 10489 10487 10484 10482 10481 10481 10483 10485 10487 10491 10494 10498 10505 10513 10521 10531 10540 10548 10555 10560 10563 10571 10583 10593 10601 10617 10628 10630 10637 10642 10635 10636 10655 10675 10686 10698 10714 10724 10729 10738 10744 10747 10754 10760 10762 10771 10788 10800 10801 10800 10805 10811 10815 10819 10825 10829 10832 10837 10843 10846 10846 10846 10847 10846 10846 10848 10856 10866 10867 10866 10871 10876 10880 10885 10888 10891 10894 10898 10901 10905 10908 10912 10914
10490 10486 10484 10480 10477 10477 10474 10471 10469 10468 10469 10470 10471 10473 10476 10478 10482 10489 10495 10501 10510 10518 10526 10535 10540 10544 10553 10566 10580 10592 10606 10617 10619 10622 10623 10618 10624 10648 10670 10682 10693 10704 10712 10719 10726 10727 10725 10734 10747 10755 10767 10781 10785 10786 10790 10794 10801 10808 10814 10820 10825 10829 10833 10837 10838 10839 10841 10841 10840 10841 10845 10855 10863 10862 10862 10869 10873 10876 10880 10883 10885 10888 10891 10895 10898 10903 10907 10909
10480 10476 10472 10470 10467 10465 10463 10460 10457 10457 10457 10457 10458 10461 10463 10464 10467 10474 10479 10485 10493 10499 10507 10516 10522 10526 10536 10550 10564 10575 10588 10600 10601 10599 10601 10602 10614 10643 10666 10675 10683 10693 10703 10710 10714 10715 10717 10731 10747 10754 10759 10767 10774 10778 10783 10789 10798 10808 10812 10816 10823 10826 10828 10831 10832 10835 10838 10837 10836 10838 10841 10852 10860 10858 10860 10867 10869 10871 10875 10877 10879 10882 10884 10887 10891 10897 10903 10905
10473 10467 10462 10459 10457 10455 10453 10450 10447 10446 10446 10445 10446 10449 10451 10452 10455 10460 10465 10471 10477 10483 10490 10498 10504 10509 10518 10532 10546 10555 10569 10582 10579 10576 10582 10588 10605 10637 10656 10663 10673 10682 10692 10703 10707 10709 10716 10729 10741 10746 10750 10758 10769 10776 10782 10788 10796 10803 10808 10813 10817 10821 10823 10825 10827 10832 10835 10834 10834 10836 10838 10847 10855 10854 10858 10864 10865 10867 10870 10871 10874 10876 10878 10882 10889 10896 10902 10904
10464 10460 10455 10451 10447 10445 10444 10442 10438 10437 10437 10436 10435 10437 10440 10442 10444 10448 10452 10458 10464 10469 10475 10482 10488 10494 10502 10516 10529 10538 10552 10563 10560 10563 10572 10581 10601 10630 10645 10652 10662 10671 10683 10694 10696 10698 10709 10721 10731 10740 10746 10751 10760 10769 10772 10776 10783 10792 10801 10806 10809 10813 10817 10819 10822 10828 10831 10831 10831 10831 10833 10842 10849 10850 10856 10861 10861 10862 10865 10866 10869 10871 10874 10881 10888 10893 10896 10896
10457 10451 10447 10444 10439 10435 10434 10433 10431 10428 10428 10427 10426 10427 10429 10431 10434 10437 10440 10446 10452 10457 10462 10468 10475 10480 10486 10498 10512 10523 10534 10540 10543 10553 10564 10573 10595 10620 10633 10640 10649 10662 10675 10681 10683 10691 10702 10710 10721 10734 10739 10740 10748 10758 10761 10765 10776 10786 10793 10798 10801 10806 10810 10814 10819 10822 10825 10827 10827 10826 10828 10836 10843 10846 10850 10854 10854 10856 10859 10861 10864 10868 10873 10878 10882 10884 10886 10888
10451 10444 10439 10438 10434 10428 10426 10425 10423 10420 10419 10419 10418 10419 10420 10422 10425 10428 10431 10436 10441 10446 10450 10456 10463 10468 10473 10483 10497 10508 10516 10520 10530 10546 10554 10565 10589 10612 10622 10629 10641 10657 10664 10665 10672 10682 10690 10700 10714 10723 10727 10728 10737 10748 10755 10762 10772 10779 10787 10793 10795 10798 10804 10810 10813 10814 10819 10824 10823 10822 10825 10830 10838 10841 10842 10845 10848 10851 10855 10857 10861 10866 10869 10871 10874 10875 10877 10881
10445 10438 10432 10431 10428 10423 10420 10419 10416 10413 10412 10412 10410 10411 10412 10413 10416 10419 10423 10426 10431 10436 10441 10446 10452 10458 10462 10471 10483 10493 10497 10503 10519 10536 10543 10557 10583 10603 10611 10619 10633 10645 10650 10653 10663 10674 10686 10700 10708 10711 10713 10716 10725 10739 10750 10757 10765 10772 10779 10784 10788 10793 10798 10803 10805 10807 10813 10818 10817 10818 10820 10825 10832 10835 10835 10839 10844 10847 10852 10857 10859 10861 10863 10866 10868 10869 10872 10878
10441 10434 10428 10425 10422 10418 10415 10413 10410 10407 10406 10406 10404 10404 10405 10406 10408 10411 10415 10418 10422 10427 10432 10437 10443 10447 10451 10460 10471 10479 10483 10490 10508 10524 10531 10547 10575 10593 10601 10610 10620 10629 10636 10642 10653 10670 10684 10690 10691 10695 10702 10711 10723 10735 10744 10752 10759 10762 10767 10775 10783 10790 10792 10795 10798 10802 10808 10812 10812 10813 10816 10820 10825 10829 10830 10834 10839 10844 10851 10855 10855 10856 10860 10862 10862 10863 10868 10874
10436 10430 10425 10420 10417 10413 10410 10408 10405 10403 10402 10401 10399 10398 10399 10400 10402 10404 10407 10411 10414 10419 10424 10429 10434 10437 10442 10450 10458 10465 10472 10482 10499 10513 10521 10538 10564 10581 10591 10599 10608 10618 10626 10632 10645 10663 10671 10672 10678 10688 10698 10710 10721 10729 10737 10745 10748 10751 10761 10774 10782 10786 10787 10789 10793 10797 10803 10806 10806 10807 10812 10815 10818 10824 10828 10828 10833 10841 10848 10849 10848 10851 10856 10857 10856 10859 10864 10869
10433 10427 10421 10417 10413 10410 10407 10404 10400 10398 10398 10396 10394 10393 10394 10395 10396 10398 10401 10404 10407 10411 10416 10421 10425 10428 10433 10440 10447 10454 10463 10475 10489 10501 10512 10531 10554 10571 10581 10588 10597 10608 10616 10624 10639 10651 10657 10665 10676 10685 10695 10706 10712 10718 10727 10733 10738 10749 10763 10771 10773 10776 10780 10782 10785 10791 10797 10800 10802 10804 10808 10810 10812 10819 10823 10823 10828 10837 10841 10842 10843 10848 10852 10852 10853 10856 10860 10864